Tracking 31027 objects as of 19-Jul-2025
HD Live streaming from Space Station
objects crossing your sky now

COSMOS 2251 DEB

Track COSMOS 2251 DEB now!
10-day predictions


NORAD ID: 38485
Int'l Code: 1993-036BTV
Perigee: 500.3 km
Apogee: 526.2 km
Inclination: 74.0 °
Period: 94.7 minutes
Semi major axis: 6884 km
RCS: 0.001 m2 (small)
Launch date: June 16, 1993
Source: Commonwealth of Independent States (former USSR) (CIS)
Launch site: PLESETSK MISSILE AND SPACE COMPLEX (PKMTR)

Note: This is SATELLITE DEBRIS
Your satellite tracking list
DELTA 1 DEB
Track 1 satellite(s)




NASA's NSSDC Master Catalog

Two Line Element Set (TLE):
1 38485U 93036BTV 25196.97245810  .00038745  00000-0  17868-2 0  9997
2 38485  73.9980  95.4522 0018823 243.1556 116.7717 15.19913139153282
Source of the keplerian elements: AFSPC